CAPE
1326 1358 1223 1204 1196 1033 745 617 610 654 572 488 464 363 378 330 340 373 368 362 292 230 232 323 479 537 596 716 636 702 721 769 858 1070 1118 1064 1173 1142 1088 1046 1128 1117 1020 963 740 406 528 706 784 610 354 293 370 413 812 938 960 953 729 494 453 484 534 447 692 466 571 596 510 410 266 498 294 374 553 1417 2393 2242 1983 2056 2115 2079 1805 1760 1969
1266 1382 1135 1007 1040 1055 902 679 530 567 553 466 308 315 292 228 280 434 331 304 189 155 224 259 286 526 696 893 936 966 990 1034 847 810 852 1102 1249 898 790 1053 1108 1059 978 848 521 426 390 401 425 462 456 330 338 402 375 319 402 580 723 532 561 396 495 374 159 583 426 694 640 624 444 225 268 534 508 774 1741 2178 2670 2313 2466 2659 2225 1734 1434
1305 1508 1318 1146 1032 812 552 476 518 430 380 361 180 144 107 49 28 94 204 192 198 173 182 247 400 594 820 1001 1044 1086 1121 1172 842 750 826 1070 1351 1151 982 1066 1048 979 886 588 424 421 404 384 394 426 216 177 139 175 202 167 266 514 624 632 572 612 442 310 325 196 526 648 736 696 660 664 478 575 696 754 1620 2161 1950 2767 2586 2136 2005 2235 2072
630 1429 1457 1153 846 630 470 535 436 342 182 176 103 26 0 3 25 13 54 16 24 115 197 277 346 408 630 1007 1088 1384 1383 1470 1515 954 797 1072 1297 1387 1264 1124 962 871 748 614 451 423 431 484 387 192 74 5 3 15 40 54 20 75 498 681 584 837 778 374 217 230 382 650 749 622 524 610 712 758 692 865 1043 2058 2266 2719 2851 2590 2488 2041 2386
51 658 1121 1038 840 598 474 428 416 423 280 54 4 0 0 0 0 0 0 9 28 36 19 46 115 290 739 1060 1100 1215 1380 1247 956 925 1151 1278 1337 1286 1373 1158 962 903 756 580 456 331 459 683 349 95 8 1 2 4 12 13 6 18 137 198 540 490 448 399 492 611 286 407 575 684 590 615 646 821 897 908 1188 2246 1664 1657 1965 2610 2292 2071 1976
156 241 353 448 462 398 483 462 329 257 138 32 0 3 0 4 1 8 12 6 0 0 0 0 17 194 476 1134 1656 1606 1570 1522 1957 1929 1750 1318 1162 1237 1235 1088 960 975 783 439 370 430 617 583 229 98 42 21 10 3 2 2 2 8 12 155 109 190 614 391 284 192 146 478 590 557 690 614 758 878 976 1207 1267 1676 1798 1568 1382 2259 2078 2090 2107
388 335 238 50 145 214 278 400 442 210 139 128 131 72 50 29 29 12 0 0 0 0 0 6 11 96 316 828 932 974 1304 1236 1528 1849 1843 1798 1686 1575 1452 1232 1186 884 628 540 476 548 604 476 196 57 81 30 9 1 2 4 5 16 26 49 90 180 290 757 349 168 164 660 627 515 451 566 648 626 1017 1804 1412 1729 1429 1523 1258 2364 2493 2392 2117
656 492 382 170 142 155 212 236 310 255 181 222 252 221 159 197 242 181 87 29 0 0 0 4 20 88 268 314 446 776 946 1150 1482 1510 1574 1737 1618 1356 1333 1125 1010 668 678 616 550 477 496 321 129 109 105 67 46 16 2 6 7 20 22 25 93 184 62 125 288 109 37 420 508 517 398 452 396 488 1121 572 1718 1629 1284 766 925 1113 2039 2079 2104
883 699 686 546 418 307 339 359 287 220 192 298 308 299 307 266 248 181 76 18 1 0 6 21 98 182 277 384 685 811 1230 1267 1374 1582 1640 1711 1210 722 736 828 832 791 784 788 740 676 384 272 201 119 139 74 36 22 3 0 2 20 4 8 11 16 34 39 200 243 716 570 456 482 421 692 428 396 717 628 414 1092 1583 1113 907 1063 1522 1774 2019
1227 887 660 634 617 560 604 516 372 349 338 324 373 350 302 309 214 125 60 7 13 46 135 173 154 141 232 392 738 947 1260 1258 1081 985 1184 1597 1161 893 827 842 814 895 897 963 992 633 390 326 336 186 94 80 63 40 10 0 1 5 7 9 7 12 10 18 32 65 206 758 564 313 584 150 234 213 396 679 757 1432 1687 1740 1381 895 1586 1597 2127
1421 1224 893 649 614 635 654 624 590 516 521 472 456 457 458 430 311 166 65 46 123 168 195 149 106 168 332 532 783 914 908 1046 530 868 1028 1200 1116 1056 877 872 802 686 772 1035 1190 938 499 329 377 322 207 147 152 74 36 0 0 0 18 20 10 0 4 3 10 62 51 177 202 541 520 217 319 366 564 739 550 796 912 581 893 1221 962 968 1548
1554 1392 1151 818 670 641 569 579 588 604 619 658 610 539 499 402 305 180 93 81 147 120 170 188 255 326 522 766 846 858 924 995 727 969 1109 1152 984 1113 908 804 656 625 698 806 1104 1147 799 572 513 492 435 416 215 146 118 45 13 4 4 9 10 12 3 0 2 10 27 50 297 507 485 272 349 571 358 602 516 684 1259 1262 1361 1081 1122 1192 1216
1528 1606 1197 875 734 738 673 619 658 646 741 789 734 617 552 415 266 140 71 54 102 212 226 242 313 498 552 710 725 735 822 558 800 919 1020 1024 1025 872 978 968 739 620 659 928 954 943 951 848 725 628 586 330 474 263 185 92 33 0 0 0 4 2 1 2 0 0 11 217 122 268 366 198 204 314 316 459 531 434 1001 673 964 1024 1130 1108 1316
1520 1382 1263 982 792 792 700 724 730 794 858 838 765 722 625 493 259 104 55 86 186 246 222 211 216 238 301 454 488 550 634 736 652 769 904 1050 1057 908 1122 1031 894 952 958 756 752 1232 1114 995 788 722 670 596 431 370 223 114 54 23 6 0 4 2 0 0 0 0 0 3 56 89 144 178 362 423 554 601 759 768 686 644 824 881 1691 1149 1217
1474 1459 1236 1050 899 750 724 812 866 894 982 940 884 816 735 507 263 147 98 111 220 419 276 183 180 192 184 197 320 403 643 387 503 670 822 920 999 807 1108 1088 962 1194 962 948 763 856 1083 1016 923 877 804 702 598 295 202 153 96 46 18 2 2 3 3 1 0 1 12 1 0 18 78 242 446 350 386 729 964 1124 771 598 982 1260 959 1288 1198
1440 1198 1011 1008 958 902 829 920 1030 1032 1078 1009 972 965 796 534 370 326 218 204 313 310 280 192 92 156 246 295 428 508 584 560 512 441 642 819 834 913 1224 1240 1126 1218 1142 779 750 1334 1187 1204 1032 903 847 701 452 252 200 154 97 48 30 0 1 1 3 0 0 0 0 0 18 50 38 54 77 478 538 494 806 1105 884 678 1014 1589 1076 750 692
1506 1150 1049 894 950 962 930 984 1117 1192 1174 1172 1296 1147 833 570 374 320 279 290 380 317 242 144 174 178 437 466 388 655 783 770 472 489 583 713 608 1276 1167 1301 1173 832 831 1035 1033 1266 1391 1322 1131 984 917 721 413 230 194 155 68 60 54 12 0 4 2 0 1 0 0 0 0 0 8 0 0 0 24 136 220 736 919 939 538 406 715 628 560
1464 1254 1004 912 989 970 1014 1064 1097 1110 1138 1151 1155 1058 751 574 368 284 230 254 261 394 305 292 468 458 396 505 506 453 303 291 332 402 611 670 796 1368 1178 1244 1055 1102 718 637 796 1356 1426 1028 924 912 917 806 409 256 230 136 60 61 44 29 2 7 1 0 0 1 0 0 0 0 0 0 0 0 0 12 138 133 675 586 528 518 390 662 271
1322 1238 1135 987 971 1003 1008 1090 1084 960 1048 1076 988 845 678 575 404 350 334 420 512 474 347 342 375 421 292 383 198 186 466 659 534 475 511 672 716 1485 1434 1388 1134 802 442 536 583 534 512 868 1038 986 920 675 401 296 199 77 100 90 61 36 14 4 2 0 1 0 0 2 2 12 14 0 0 0 17 0 0 18 400 660 706 777 258 788 347
1336 1239 1202 1061 1016 1092 1118 1170 1149 983 926 886 897 889 756 531 450 544 459 303 259 259 260 190 256 450 577 468 362 326 654 569 1306 954 493 537 20 604 1308 1133 824 558 549 522 539 431 376 547 769 1062 882 621 409 179 8 79 101 109 71 86 53 14 2 0 2 0 0 4 1 2 68 210 44 12 35 97 0 0 55 408 322 308 384 208 164
1457 1432 1360 1091 1050 1216 1342 1367 1235 999 884 831 809 794 772 712 774 734 472 369 372 451 384 411 360 450 551 640 720 887 628 770 1346 652 541 216 0 61 555 602 671 753 525 355 224 164 247 254 362 688 775 512 130 0 32 75 97 86 69 142 113 65 17 14 4 2 30 25 40 39 130 309 307 213 153 102 90 56 36 22 45 62 88 408 268
1440 1577 1676 1374 1216 1210 1315 1595 1255 1081 1037 1027 1032 955 843 776 707 598 472 542 510 457 570 598 580 565 591 737 865 827 975 832 1355 1032 794 653 544 28 6 204 231 40 48 261 309 297 279 307 488 704 514 134 0 0 39 93 118 117 114 94 130 102 19 12 30 25 35 39 24 73 307 373 287 259 143 166 124 132 124 107 48 56 302 284 374
1612 1837 1853 1686 1723 1447 1406 1377 1185 1003 1039 1000 974 1060 1216 1285 1152 1050 964 783 632 578 707 731 683 730 857 822 668 662 1010 1842 1242 1064 926 831 690 210 0 0 0 0 130 311 352 273 284 406 480 434 0 0 0 0 33 142 151 126 114 130 151 142 73 83 26 25 10 17 28 22 7 123 461 430 234 252 223 225 104 102 144 134 170 311 304
1887 2085 2132 2204 2086 1614 1450 1354 1235 1196 1168 1157 1086 1133 1303 1482 1497 1394 1138 954 1028 809 696 778 886 759 627 416 778 576 1008 1645 653 696 821 403 0 0 0 0 0 0 14 72 126 205 370 390 447 0 0 0 146 138 192 222 215 183 176 176 200 179 176 117 46 31 18 3 8 10 14 9 10 499 441 354 116 392 258 129 182 218 245 166 165
2084 2383 2478 2375 2157 1748 1548 1458 1254 1282 1294 1272 1240 1324 1470 1635 1468 1464 1041 1078 800 934 825 842 857 739 570 512 617 599 599 903 1201 865 288 43 1 0 0 0 0 0 0 142 313 272 297 2 0 0 268 234 206 314 365 421 249 172 223 262 289 292 234 156 111 62 33 6 4 14 9 53 22 11 197 853 483 524 561 438 286 317 286 190 304
2306 2497 2546 2004 1834 1834 1608 1356 1254 1289 1398 1308 1126 1169 924 1358 1397 882 807 892 714 950 946 737 690 605 478 681 350 588 329 423 1106 815 332 152 71 13 0 0 0 0 0 149 0 0 0 0 0 0 250 438 529 709 256 234 144 152 259 342 393 311 238 196 142 78 45 19 1 7 10 24 46 4 10 601 598 536 320 235 470 319 188 610 722
2693 2698 2321 1770 1840 1590 1488 1376 1014 1436 1617 1282 621 708 1056 1150 1101 1032 818 728 536 423 707 496 577 414 905 444 388 500 594 587 818 296 14 2 2 0 0 22 21 19 559 294 153 119 113 37 97 54 270 254 356 330 258 185 138 251 334 329 378 326 258 224 172 81 40 58 34 2 1 4 2 4 48 426 848 1075 1254 794 631 222 145 626 1100
2564 2508 2345 2165 1719 1519 1468 1209 1346 1294 1009 658 643 1081 1412 1276 1067 777 773 612 485 549 604 545 642 717 568 506 601 718 291 502 264 0 0 0 0 0 0 0 13 15 13 38 0 0 30 132 411 550 1694 1002 628 524 204 120 232 298 287 300 262 262 249 244 253 204 164 120 99 67 5 0 0 7 13 82 251 405 429 318 306 494 933 894 701
2352 2231 2070 1790 1403 1172 1172 1575 1504 1191 865 708 1061 697 767 1569 1212 781 737 864 1042 1040 630 264 392 552 474 453 663 419 336 275 0 0 0 0 0 0 0 0 0 0 0 0 0 0 121 404 137 104 118 90 162 200 224 234 284 248 169 148 170 138 116 138 143 139 196 155 78 40 19 2 0 5 17 92 132 167 166 282 706 1065 662 787 1084
2059 1672 1030 859 995 882 1129 978 988 948 966 870 584 376 0 114 1024 1097 645 484 445 0 0 332 117 151 171 346 173 110 27 0 0 0 0 0 0 0 0 0 0 0 0 0 0 0 278 157 65 59 51 60 47 50 28 40 62 77 132 98 102 95 59 56 93 187 177 144 96 57 41 36 6 12 12 76 137 221 282 438 484 525 452 638 288
1186 856 711 766 630 797 698 1447 496 1019 611 478 746 544 12 0 0 244 285 0 0 0 0 0 0 0 0 184 0 0 0 0 0 0 0 0 0 0 0 0 0 0 0 0 46 711 50 42 25 12 4 2 0 2 1 0 28 26 10 40 58 96 6 10 8 57 97 95 88 73 68 76 58 41 31 46 233 262 256 202 248 204 112 212 274
1330 1096 725 588 1462 834 681 513 761 679 594 691 1022 914 470 162 0 0 0 0 0 0 0 0 0 0 0 0 0 0 0 0 0 0 0 0 0 0 0 0 0 0 0 0 57 122 38 14 0 0 0 0 0 0 14 22 38 30 34 28 42 38 12 6 66 21 47 64 89 71 59 78 90 72 56 36 24 30 27 32 30 70 14 48 30
1258 1024 968 788 1027 1010 1052 1082 932 706 692 861 1222 580 908 494 365 235 0 0 0 0 0 0 0 0 0 0 0 0 0 0 0 0 0 0 0 0 0 0 0 0 0 51 90 14 11 0 0 0 0 0 0 0 0 29 34 48 44 58 59 79 89 107 131 100 39 29 69 84 68 66 83 89 89 55 58 92 43 12 18 7 24 0 54
1224 1365 1194 1234 1166 1130 1025 1068 1114 1032 942 1049 1296 877 652 376 333 234 264 11 0 0 0 0 0 0 0 0 0 0 0 0 0 0 0 0 0 0 0 0 0 0 0 0 0 0 0 0 0 0 0 0 0 0 0 0 0 0 7 4 0 0 10 53 110 126 99 51 37 62 64 60 60 86 115 98 92 96 81 46 38 14 1 16 10
1138 928 922 880 718 621 619 804 788 1294 716 1364 1378 1164 890 790 910 592 438 56 65 0 0 0 0 0 0 0 0 0 0 0 0 0 0 0 0 0 0 90 36 26 12 4 1 0 0 0 0 0 0 0 0 0 0 0 0 0 0 0 0 0 0 0 7 60 82 66 31 22 42 42 52 58 78 99 111 100 95 71 50 63 73 58 24
886 784 843 1023 1305 1274 1085 926 906 1120 1148 1342 1514 998 888 974 734 570 507 342 540 143 5 4 10 7 0 0 0 0 0 0 0 0 0 0 0 0 38 0 10 4 9 7 6 3 0 0 0 0 0 0 0 0 0 0 0 0 0 0 0 0 0 0 0 0 40 75 56 28 37 46 46 39 81 62 88 124 157 145 108 68 71 82 70
772 818 815 912 995 894 734 793 1048 1092 1025 1066 970 1028 832 878 931 1151 1067 790 659 596 191 12 7 4 0 0 1 0 0 0 0 0 0 0 0 0 0 0 1 2 2 2 2 1 0 0 0 0 0 0 0 0 0 0 0 0 0 0 0 0 0 0 0 0 0 9 42 53 38 25 27 27 64 50 58 95 120 139 172 152 114 75 95
1075 1140 1244 890 994 1046 980 804 662 522 837 711 870 860 686 428 376 244 187 102 57 114 3 2 8 0 2 1 0 0 2 0 0 0 0 0 0 2 4 2 0 0 1 1 1 1 0 0 0 0 0 0 0 0 0 0 0 0 0 0 0 0 0 0 0 0 0 0 0 4 32 32 34 22 16 13 43 59 87 96 125 156 174 153 111
978 810 428 313 207 441 808 636 556 636 575 780 745 572 408 190 32 4 0 35 10 10 0 0 0 0 0 0 0 0 0 0 1 5 7 5 5 5 4 2 1 0 0 0 0 0 0 0 0 0 0 0 0 0 0 0 0 0 0 0 0 0 0 0 0 0 0 0 0 0 0 0 10 26 22 14 27 30 45 77 93 110 148 154 160
720 617 478 448 458 498 636 513 586 763 929 347 322 280 170 10 0 0 0 0 0 0 0 0 0 0 0 0 0 0 0 0 1 6 7 9 8 8 6 4 3 2 0 0 0 0 0 0 0 0 0 0 0 0 0 0 0 0 0 0 0 0 0 0 0 0 0 0 0 0 0 0 0 0 0 9 24 33 34 58 81 82 64 118 101
800 557 446 331 396 416 528 518 322 344 249 205 229 113 4 0 0 0 1 0 0 0 0 0 0 0 0 0 0 0 0 1 0 4 5 4 7 8 6 3 2 2 1 0 0 0 0 0 0 0 0 0 0 0 0 0 0 0 0 0 0 0 0 0 0 0 0 0 0 0 0 0 0 0 0 0 0 0 17 24 42 42 46 43 54
837 346 464 380 460 590 518 244 212 180 140 60 26 26 5 9 2 18 4 0 2 0 0 0 0 2 0 0 0 0 0 3 2 3 1 0 2 5 2 0 0 0 0 0 0 0 0 0 0 0 0 0 0 0 0 0 0 0 0 0 0 0 0 0 0 0 0 0 0 0 0 0 0 0 0 0 0 0 0 0 0 15 26 27 48
680 372 213 223 288 478 426 261 105 20 21 1 6 6 8 4 5 9 6 1 1 0 0 0 0 2 3 2 0 0 4 7 4 3 2 4 6 2 0 0 0 1 0 0 0 0 0 0 0 0 0 0 0 0 0 0 0 0 0 0 0 0 0 0 0 0 0 0 0 0 0 0 0 0 0 0 0 0 0 0 0 0 0 5 28
266 179 188 148 132 44 29 82 29 15 0 0 0 0 1 2 1 0 0 0 0 0 0 0 1 2 5 2 2 4 7 4 7 4 6 5 5 1 0 0 0 1 1 0 0 0 0 0 0 0 0 0 0 0 0 0 0 0 0 0 0 0 0 0 0 0 0 0 0 0 0 0 0 0 0 0 0 0 0 0 0 0 0 0 0
110 50 23 20 17 8 6 18 1 1 0 0 0 0 0 0 1 0 0 0 0 0 0 0 0 0 2 5 8 3 7 10 7 8 5 5 5 1 0 0 0 0 0 0 0 0 0 0 0 0 0 0 0 0 0 0 0 0 0 0 0 0 0 0 0 0 0 0 0 0 0 0 0 0 0 0 0 0 0 0 0 0 0 0 0
81 54 8 10 4 8 10 8 0 0 0 0 0 0 0 0 0 0 0 0 0 0 0 0 0 0 1 4 4 5 7 8 8 5 4 4 6 3 1 2 0 0 0 0 0 0 0 0 0 0 0 0 0 0 0 0 0 0 0 0 0 0 0 0 0 0 0 0 0 0 0 0 0 0 0 0 0 0 0 0 0 0 0 0 0
2 0 0 0 0 0 1 2 1 2 2 3 1 0 0 0 0 0 0 0 0 0 0 0 0 0 0 0 2 4 7 6 2 5 5 8 4 2 0 0 0 0 0 0 0 0 0 0 0 0 0 0 0 0 0 0 0 0 0 0 0 0 0 0 0 0 0 0 0 0 0 0 0 0 0 0 0 0 0 0 0 0 0 0 0
0 0 0 0 0 0 0 0 0 0 0 1 1 0 0 0 0 0 0 0 0 0 0 0 0 0 0 0 0 0 0 1 0 0 0 0 0 0 0 0 0 0 0 0 0 0 0 0 0 0 0 0 0 0 0 0 0 0 0 0 0 0 0 0 0 0 0 0 0 0 0 0 0 0 0 0 0 0 0 0 0 0 0 0 0
1 0 0 0 0 3 5 3 5 1 2 6 4 1 1 0 0 0 0 0 0 0 0 0 0 0 0 0 0 0 0 0 0 0 0 0 0 0 0 0 0 0 0 0 0 0 0 0 0 0 0 0 0 0 0 0 0 0 0 0 0 0 0 0 0 0 0 0 0 0 0 0 0 0 0 0 0 0 0 0 0 0 0 0 0
6 17 17 15 8 2 4 4 4 3 4 0 1 1 1 0 0 0 0 0 0 0 0 0 0 0 0 0 0 0 0 0 0 0 0 0 0 0 0 0 0 0 0 0 0 0 0 0 0 0 0 0 0 0 0 0 0 0 0 0 0 0 0 0 0 0 0 0 0 0 0 0 0 0 0 0 0 0 0 0 0 0 0 0 0
0 0 0 0 0 0 0 0 0 0 0 0 0 0 0 0 0 0 0 0 0 0 0 0 0 0 0 0 0 0 0 0 0 0 0 0 0 0 0 0 0 0 0 0 0 0 0 0 0 0 0 0 0 0 0 0 0 0 0 0 0 0 0 0 0 0 0 0 0 0 0 0 0 0 0 0 0 0 0 0 0 0 0 0 0
Wind_Speed
36 36 35 35 34 33 33 35 35 35 36 36 35 34 34 34 34 34 35 35 36 38 39 40 40 42 42 42 41 42 43 42 42 40 37 35 35 34 32 32 33 33 32 29 29 30 31 31 29 29 29 30 33 34 35 38 40 40 41 38 36 37 38 34 33 33 35 37 39 39 38 37 35 36 34 35 38 40 31 29 29 28 28 27 28
36 37 37 35 34 34 34 35 36 37 36 36 35 35 35 35 36 37 36 36 37 38 40 41 42 42 41 42 42 43 43 43 41 40 36 35 34 34 31 30 30 30 31 30 29 31 32 33 31 30 30 30 32 33 34 35 39 40 40 39 37 37 38 37 30 32 32 37 38 39 37 34 33 35 34 34 33 35 33 31 30 29 29 28 26
38 38 38 37 35 34 34 35 37 37 37 36 36 37 36 nan nan nan 38 38 40 41 41 42 42 42 41 42 43 44 44 43 42 39 36 34 33 31 30 28 28 28 29 29 29 30 30 33 34 33 33 32 32 34 34 34 37 39 38 40 37 37 38 38 34 31 31 34 37 39 39 37 32 32 32 33 35 34 31 31 31 31 31 30 29
42 42 39 37 36 35 36 37 37 36 37 38 38 nan nan nan nan nan nan nan nan 41 43 44 44 43 42 42 44 44 43 41 40 38 36 34 32 30 28 27 26 26 26 28 28 28 29 32 35 35 nan nan nan nan nan nan nan nan 38 39 39 35 36 38 32 32 34 34 37 39 41 39 35 32 32 33 32 34 36 33 33 33 33 32 32
nan 43 41 39 38 37 37 37 38 39 38 nan nan nan nan nan nan nan nan nan nan nan nan nan 46 44 43 43 43 43 40 39 38 36 36 34 31 29 28 26 24 24 24 26 27 27 28 30 34 nan nan nan nan nan nan nan nan nan 39 39 41 37 34 35 37 39 35 33 36 40 41 37 34 32 32 31 32 36 38 30 32 34 33 33 33
42 43 41 40 39 38 38 37 38 38 37 nan nan nan nan nan nan nan nan nan nan nan nan nan nan 44 43 43 43 39 37 38 38 35 33 31 29 28 27 25 23 22 22 24 26 28 28 30 32 nan nan nan nan nan nan nan nan nan nan 39 41 40 35 35 36 34 32 34 35 37 39 39 38 35 34 31 32 36 36 35 31 35 35 34 33
43 43 41 nan 40 38 38 39 39 39 40 40 41 nan nan nan nan nan nan nan nan nan nan nan nan nan 44 44 44 40 38 36 36 34 31 30 28 27 26 24 23 22 21 22 24 26 28 30 30 nan nan nan nan nan nan nan nan nan nan nan nan 42 41 39 38 32 33 35 38 37 38 40 40 36 35 35 34 36 38 36 31 35 35 33 34
46 44 42 41 40 39 38 39 41 41 41 41 42 41 40 39 39 39 nan nan nan nan nan nan nan nan 43 42 41 38 36 35 35 33 31 29 27 26 25 23 21 19 20 21 23 25 27 28 30 30 30 nan nan nan nan nan nan nan nan nan nan 43 nan 40 34 32 nan 38 39 38 41 41 39 35 40 35 35 38 38 38 35 32 32 34 35
47 44 43 42 41 40 40 41 43 43 43 44 43 42 40 39 39 40 nan nan nan nan nan nan nan 42 42 42 40 38 37 35 35 33 30 27 26 23 22 21 20 18 19 20 23 24 25 28 30 29 28 nan nan nan nan nan nan nan nan nan nan nan nan nan 40 32 34 39 39 42 42 41 36 34 36 35 32 32 38 36 34 33 34 34 35
46 44 43 42 42 42 43 44 44 44 44 44 43 42 40 39 39 39 nan nan nan nan 42 42 42 43 41 40 38 36 35 35 38 31 29 27 23 23 21 20 19 19 18 19 22 23 25 27 29 26 nan nan nan nan nan nan nan nan nan nan nan nan nan nan nan nan 33 37 39 43 41 37 35 32 34 34 32 33 36 37 34 34 34 33 34
45 44 43 42 42 43 44 45 45 45 45 45 44 43 41 40 40 40 nan nan 41 42 43 42 41 41 39 37 36 34 33 36 43 37 34 30 27 22 21 19 19 18 18 19 22 23 24 25 28 26 21 23 25 nan nan nan nan nan nan nan nan nan nan nan nan nan nan 37 39 41 41 34 32 32 35 36 33 29 35 36 34 35 33 30 30
45 44 43 43 43 44 45 46 46 45 46 46 45 44 42 41 40 41 nan nan 42 42 41 41 40 40 39 37 34 31 29 39 42 37 34 33 30 25 22 20 19 19 18 19 22 24 23 25 27 26 22 22 24 24 23 nan nan nan nan nan nan nan nan nan nan nan nan nan 38 37 35 32 32 32 33 35 33 30 34 38 35 35 34 32 31
45 44 44 44 44 45 46 46 46 47 47 47 46 45 44 42 41 42 nan nan 41 41 41 41 41 39 37 34 32 29 27 37 39 37 33 32 31 27 23 21 19 18 17 18 21 24 25 27 26 24 23 19 21 23 25 nan nan nan nan nan nan nan nan nan nan nan nan 37 36 38 36 32 32 31 29 31 33 30 33 34 32 34 33 33 32
45 45 44 44 45 47 48 47 47 47 47 47 46 45 43 42 41 42 nan nan 41 41 40 39 38 37 35 33 31 28 27 34 38 35 32 31 30 29 23 20 18 19 20 18 19 23 25 27 26 23 20 18 17 20 26 29 nan nan nan nan nan nan nan nan nan nan nan nan nan nan 30 27 29 31 30 32 34 33 36 34 33 33 34 34 35
45 45 44 45 46 48 49 49 48 47 47 46 45 43 42 41 41 41 nan 40 40 40 40 38 37 35 32 30 29 28 27 37 37 34 32 31 30 29 23 21 19 21 23 21 21 23 25 27 27 24 21 19 18 16 22 27 nan nan nan nan nan nan nan nan nan nan nan nan nan nan nan 25 23 25 28 34 34 35 37 33 33 36 35 34 36
45 45 45 46 48 49 49 49 48 46 45 44 43 42 41 41 41 42 41 40 40 40 39 37 nan 33 30 29 28 27 26 38 34 32 30 30 31 26 23 21 20 19 21 22 21 23 25 27 28 25 21 18 15 11 17 25 nan nan nan nan nan nan nan nan nan nan nan nan nan nan nan nan nan 22 27 30 35 35 34 33 37 43 41 35 32
45 46 46 47 48 50 50 50 48 45 44 43 42 41 41 41 41 42 41 40 40 39 36 34 33 31 28 28 28 26 23 30 32 30 29 29 29 24 21 20 18 16 15 18 19 21 25 28 29 26 23 20 15 11 14 24 nan nan nan nan nan nan nan nan nan nan nan nan nan nan nan nan nan nan nan 25 34 38 43 38 34 40 38 33 32
46 47 47 47 48 49 50 50 48 45 44 42 41 41 40 41 40 41 39 38 38 36 34 33 32 29 26 26 27 23 21 19 26 28 28 30 25 21 20 20 19 18 17 17 20 22 23 27 31 28 24 21 15 10 13 19 nan nan nan nan nan nan nan nan nan nan nan nan nan nan nan nan nan nan nan nan 30 38 36 32 32 37 35 34 34
47 48 48 47 47 48 49 49 48 45 44 42 41 40 40 39 40 39 38 39 38 35 33 32 29 26 25 23 25 23 22 24 22 26 27 27 24 22 20 21 20 18 16 17 19 21 22 25 29 31 27 21 13 9 10 nan nan nan nan nan nan nan nan nan nan nan nan nan nan nan nan nan nan nan nan nan nan nan 33 32 35 36 33 35 34
46 47 47 47 46 46 47 48 48 45 43 42 41 40 40 39 39 39 39 38 35 33 32 31 27 24 27 25 23 20 22 25 26 31 31 28 nan 21 20 20 19 17 17 17 18 21 22 25 27 30 30 25 16 9 nan nan 13 17 nan nan nan nan nan nan nan nan nan nan nan nan nan 28 nan nan nan nan nan nan nan 30 33 35 36 34 31
46 46 47 47 47 47 47 47 47 46 43 41 40 40 41 39 38 38 36 36 35 34 32 29 26 23 23 23 24 23 21 24 35 34 32 29 nan nan 20 19 18 18 18 18 19 19 21 23 25 26 29 24 16 nan nan nan nan nan nan 21 27 nan nan nan nan nan nan nan nan nan 28 29 29 28 28 27 nan nan nan nan nan nan nan 32 33
45 46 46 47 47 47 48 49 47 46 44 42 41 40 39 38 37 36 35 34 35 35 32 29 25 23 22 25 24 22 26 28 32 33 32 29 26 nan nan 19 21 nan nan 20 20 20 21 22 23 26 25 19 nan nan nan nan 5 10 14 nan 26 30 nan nan nan nan nan nan nan nan 30 28 29 28 26 25 26 27 27 26 nan nan 29 31 34
45 47 47 47 47 46 47 48 48 47 44 42 40 39 39 38 38 36 34 33 33 35 34 30 25 23 24 23 22 23 26 29 27 31 31 26 25 22 nan nan nan nan 20 19 19 20 21 22 23 23 nan nan nan nan nan 6 4 6 11 21 26 28 nan nan nan nan nan nan nan nan nan 36 28 26 24 24 25 26 26 27 27 29 30 33 35
45 46 46 46 45 44 45 47 47 45 43 41 40 38 38 38 37 37 35 33 35 36 35 32 28 25 22 21 22 25 29 29 27 29 26 26 nan nan nan nan nan nan nan nan 19 20 20 21 22 nan nan nan 22 18 15 12 8 1 8 16 26 29 29 30 nan nan nan nan nan nan nan nan nan 29 25 22 23 26 26 26 27 27 30 32 31
44 45 45 44 42 42 45 46 45 44 42 40 37 37 37 38 38 38 34 29 32 37 36 33 28 25 23 23 23 23 25 31 30 28 25 nan nan nan nan nan nan nan nan 19 19 20 19 nan nan nan 22 24 25 24 20 15 8 3 5 11 16 25 29 32 33 nan nan nan nan nan nan nan nan nan 22 23 24 28 31 32 30 30 32 33 33
43 43 45 44 42 43 44 44 42 41 40 38 34 35 35 35 39 39 34 29 33 36 34 32 27 26 26 24 21 21 21 23 30 27 24 21 nan nan nan nan nan nan nan 19 nan nan nan nan nan nan 24 26 27 23 17 15 13 6 5 4 10 18 25 30 33 nan nan nan nan nan nan nan nan nan nan 25 28 30 30 28 29 31 31 37 38
43 43 45 44 45 45 42 41 40 41 40 36 33 33 36 35 38 39 33 26 31 37 35 30 30 28 27 23 21 21 21 22 28 27 nan nan nan nan nan nan nan nan 14 15 17 16 16 nan nan nan 21 22 21 16 20 13 13 13 10 3 6 15 22 25 30 nan nan nan nan nan nan nan nan nan nan 30 33 32 32 32 34 36 35 37 39
43 44 43 44 45 44 42 40 39 40 40 36 32 35 36 39 41 37 28 27 33 37 34 31 27 25 24 22 23 24 21 21 28 nan nan nan nan nan nan nan nan nan nan nan nan nan nan 17 17 19 23 24 25 26 26 23 20 16 11 6 3 12 20 24 25 29 34 36 nan nan nan nan nan nan nan nan 35 34 36 35 32 33 35 42 41
44 43 43 46 43 43 42 43 41 38 36 34 40 42 39 37 40 40 36 35 36 36 35 33 26 26 26 23 23 24 24 24 nan nan nan nan nan nan nan nan nan nan nan nan nan nan 17 17 18 17 18 nan 16 15 17 20 20 17 13 8 5 7 14 18 23 28 33 38 nan nan nan nan nan nan nan nan 47 38 30 28 34 38 38 39 41
44 44 42 43 43 42 45 41 40 39 39 36 43 46 nan 44 37 35 40 40 43 nan nan 36 32 29 28 30 28 26 nan nan nan nan nan nan nan nan nan nan nan nan nan nan nan nan 16 17 nan nan nan nan nan nan nan nan nan nan 15 nan 8 nan nan nan nan 21 30 35 nan nan nan nan nan nan nan nan 46 47 50 49 43 42 40 37 35
43 40 39 38 38 37 38 43 37 36 36 41 44 44 nan nan nan 44 44 nan nan nan nan nan nan nan nan 31 nan nan nan nan nan nan nan nan nan nan nan nan nan nan nan nan nan 18 nan nan nan nan nan nan nan nan nan nan nan nan nan nan nan nan nan nan nan nan nan nan nan nan nan nan nan nan nan nan 47 48 49 48 51 53 50 49 47
43 40 39 38 44 43 40 32 34 35 36 40 44 37 41 45 nan nan nan nan nan nan nan nan nan nan nan nan nan nan nan nan nan nan nan nan nan nan nan nan nan nan nan nan nan 15 nan nan nan nan nan nan nan nan nan nan nan nan nan nan nan nan nan nan nan nan nan nan nan nan nan nan nan nan nan nan nan nan nan nan nan nan nan nan nan
41 39 38 38 38 40 39 36 34 33 33 33 41 41 36 41 42 41 nan nan nan nan nan nan nan nan nan nan nan nan nan nan nan nan nan nan nan nan nan nan nan nan nan nan nan nan nan nan nan nan nan nan nan nan nan nan nan nan nan nan nan nan nan 5 1 5 nan nan nan nan nan nan nan nan nan nan nan nan nan nan nan nan nan nan nan
41 40 39 38 38 37 36 36 35 34 33 35 36 37 37 37 36 41 41 nan nan nan nan nan nan nan nan nan nan nan nan nan nan nan nan nan nan nan nan nan nan nan nan nan nan nan nan nan nan nan nan nan nan nan nan nan nan nan nan nan nan nan nan nan 4 3 nan nan nan nan nan nan nan nan 37 nan nan nan nan nan nan nan nan nan nan
40 38 37 38 35 35 35 33 34 34 33 35 36 36 37 38 38 41 37 nan nan nan nan nan nan nan nan nan nan nan nan nan nan nan nan nan nan nan nan nan nan nan nan nan nan nan nan nan nan nan nan nan nan nan nan nan nan nan nan nan nan nan nan nan nan nan nan nan nan nan nan nan nan nan nan nan 40 nan nan nan nan nan nan nan nan
40 38 38 40 37 36 35 35 34 34 32 33 31 34 36 38 38 40 39 37 36 35 nan nan nan nan nan nan nan nan nan nan nan nan nan nan nan nan nan nan nan nan nan nan nan nan nan nan nan nan nan nan nan nan nan nan nan nan nan nan nan nan nan nan nan nan nan nan nan nan nan nan nan nan nan nan nan 38 40 47 51 nan nan nan nan
39 38 37 39 38 35 36 35 35 36 34 33 31 37 38 37 38 39 38 37 34 33 35 nan nan nan nan nan nan nan nan nan nan nan nan nan nan nan nan nan nan nan nan nan nan nan nan nan nan nan nan nan nan nan nan nan nan nan nan nan nan nan nan nan nan nan nan nan nan nan nan nan nan nan nan nan nan nan 38 42 48 52 53 nan nan
37 37 38 40 36 36 35 34 33 37 31 33 34 34 36 37 37 38 38 34 nan 33 nan nan nan nan nan nan nan nan nan nan nan nan nan nan nan nan nan nan nan nan nan nan nan nan nan nan nan nan nan nan nan nan nan nan nan nan nan nan nan nan nan nan nan nan nan nan nan nan nan nan nan nan nan nan nan nan nan nan 43 47 51 55 53
39 45 43 40 35 33 33 32 31 32 33 36 38 39 40 39 nan nan nan nan nan nan nan nan nan nan nan nan nan nan nan nan nan nan nan nan nan nan nan nan nan nan nan nan nan nan nan nan nan nan nan nan nan nan nan nan nan nan nan nan nan nan nan nan nan nan nan nan nan nan nan nan nan nan nan nan nan nan nan nan nan 41 45 48 49
37 37 41 37 33 33 30 29 30 35 37 36 39 39 40 nan nan nan nan nan nan nan nan nan nan nan nan nan nan nan nan nan nan nan nan nan nan nan nan nan nan nan nan nan nan nan nan nan nan nan nan nan nan nan nan nan nan nan nan nan nan nan nan nan nan nan nan nan nan nan nan nan nan nan nan nan nan nan nan nan nan nan nan 39 41
38 39 38 39 36 30 34 32 36 38 39 39 38 38 nan nan nan nan nan nan nan nan nan nan nan nan nan nan nan nan nan nan nan nan nan nan nan nan nan nan nan nan nan nan nan nan nan nan nan nan nan nan nan nan nan nan nan nan nan nan nan nan nan nan nan nan nan nan nan nan nan nan nan nan nan nan nan nan nan nan nan nan nan nan nan
38 38 33 36 35 33 35 36 38 40 39 nan nan nan nan nan nan nan nan nan nan nan nan nan nan nan nan nan nan nan nan nan nan nan nan nan nan nan nan nan nan nan nan nan nan nan nan nan nan nan nan nan nan nan nan nan nan nan nan nan nan nan nan nan nan nan nan nan nan nan nan nan nan nan nan nan nan nan nan nan nan nan nan nan nan
39 38 39 37 36 35 35 37 36 nan nan nan nan nan nan nan nan nan nan nan nan nan nan nan nan nan nan nan nan nan nan nan nan nan nan nan nan nan nan nan nan nan nan nan nan nan nan nan nan nan nan nan nan nan nan nan nan nan nan nan nan nan nan nan nan nan nan nan nan nan nan nan nan nan nan nan nan nan nan nan nan nan nan nan nan
41 41 39 38 37 nan nan nan nan nan nan nan nan nan nan nan nan nan nan nan nan nan nan nan nan nan nan nan nan nan nan nan nan nan nan nan nan nan nan nan nan nan nan nan nan nan nan nan nan nan nan nan nan nan nan nan nan nan nan nan nan nan nan nan nan nan nan nan nan nan nan nan nan nan nan nan nan nan nan nan nan nan nan nan nan
42 nan nan nan nan nan nan nan nan nan nan nan nan nan nan nan nan nan nan nan nan nan nan nan nan nan nan nan nan nan nan nan nan nan nan nan nan nan nan nan nan nan nan nan nan nan nan nan nan nan nan nan nan nan nan nan nan nan nan nan nan nan nan nan nan nan nan nan nan nan nan nan nan nan nan nan nan nan nan nan nan nan nan nan nan
nan nan nan nan nan nan nan nan nan nan nan nan nan nan nan nan nan nan nan nan nan nan nan nan nan nan nan nan nan nan nan nan nan nan nan nan nan nan nan nan nan nan nan nan nan nan nan nan nan nan nan nan nan nan nan nan nan nan nan nan nan nan nan nan nan nan nan nan nan nan nan nan nan nan nan nan nan nan nan nan nan nan nan nan nan
nan nan nan nan nan nan nan nan nan nan nan nan nan nan nan nan nan nan nan nan nan nan nan nan nan nan nan nan nan nan nan nan nan nan nan nan nan nan nan nan nan nan nan nan nan nan nan nan nan nan nan nan nan nan nan nan nan nan nan nan nan nan nan nan nan nan nan nan nan nan nan nan nan nan nan nan nan nan nan nan nan nan nan nan nan
nan nan nan nan nan nan nan nan nan nan nan nan nan nan nan nan nan nan nan nan nan nan nan nan nan nan nan nan nan nan nan nan nan nan nan nan nan nan nan nan nan nan nan nan nan nan nan nan nan nan nan nan nan nan nan nan nan nan nan nan nan nan nan nan nan nan nan nan nan nan nan nan nan nan nan nan nan nan nan nan nan nan nan nan nan
nan nan nan nan nan nan nan nan nan nan nan nan nan nan nan nan nan nan nan nan nan nan nan nan nan nan nan nan nan nan nan nan nan nan nan nan nan nan nan nan nan nan nan nan nan nan nan nan nan nan nan nan nan nan nan nan nan nan nan nan nan nan nan nan nan nan nan nan nan nan nan nan nan nan nan nan nan nan nan nan nan nan nan nan nan
nan nan nan nan nan nan nan nan nan nan nan nan nan nan nan nan nan nan nan nan nan nan nan nan nan nan nan nan nan nan nan nan nan nan nan nan nan nan nan nan nan nan nan nan nan nan nan nan nan nan nan nan nan nan nan nan nan nan nan nan nan nan nan nan nan nan nan nan nan nan nan nan nan nan nan nan nan nan nan nan nan nan nan nan nan
nan nan nan nan nan nan nan nan nan nan nan nan nan nan nan nan nan nan nan nan nan nan nan nan nan nan nan nan nan nan nan nan nan nan nan nan nan nan nan nan nan nan nan nan nan nan nan nan nan nan nan nan nan nan nan nan nan nan nan nan nan nan nan nan nan nan nan nan nan nan nan nan nan nan nan nan nan nan nan nan nan nan nan nan nan
Wind_Direction
317 318 319 319 317 315 316 317 318 318 320 321 322 322 320 319 318 314 312 314 315 316 317 319 321 324 324 323 321 319 317 313 310 307 305 300 295 289 284 282 282 283 283 281 277 273 270 267 265 262 258 255 256 255 253 252 254 255 256 253 248 246 249 247 242 235 237 242 237 233 235 243 247 249 246 242 242 246 248 251 255 256 253 250 252
315 317 318 316 316 315 316 316 316 317 318 320 322 323 321 321 322 320 319 317 317 317 318 320 323 324 324 323 321 320 317 314 311 308 305 300 297 291 286 282 280 281 282 279 276 274 269 266 264 260 255 251 249 249 250 247 245 247 251 253 250 248 246 246 242 235 229 237 240 235 233 241 247 249 247 248 245 246 249 251 254 257 255 251 249
316 317 317 316 317 316 315 316 316 318 320 321 325 325 325 nan nan nan 320 320 319 320 321 323 324 326 325 324 322 320 318 316 312 309 305 302 300 295 290 286 282 280 280 277 274 271 268 266 263 261 259 249 245 246 246 248 246 245 249 249 247 251 248 248 247 238 230 232 237 236 236 242 250 252 251 249 249 250 252 256 257 257 255 251 248
312 317 317 317 317 316 315 315 316 318 321 322 325 nan nan nan nan nan nan nan nan 322 324 325 325 326 326 325 324 321 319 317 314 309 307 306 304 300 294 288 285 283 281 279 276 273 269 266 264 261 nan nan nan nan nan nan nan nan 244 248 248 246 248 246 253 249 237 232 236 236 235 238 247 253 250 251 252 252 251 249 256 258 256 254 252
nan 314 317 318 318 316 315 315 317 320 322 nan nan nan nan nan nan nan nan nan nan nan nan nan 324 325 326 325 323 322 321 318 316 312 310 308 306 301 296 291 288 287 284 282 281 278 274 271 266 nan nan nan nan nan nan nan nan nan 241 242 239 238 240 243 246 250 246 238 235 236 235 235 242 249 253 254 255 253 249 251 258 259 256 251 249
315 315 317 318 315 315 315 316 318 319 321 nan nan nan nan nan nan nan nan nan nan nan nan nan nan 324 325 324 320 319 320 319 315 311 309 307 305 301 298 295 293 292 289 286 285 284 281 278 273 nan nan nan nan nan nan nan nan nan nan 233 234 236 235 242 245 247 246 241 238 235 235 236 242 244 249 253 256 256 256 247 246 257 256 253 250
312 312 315 nan 312 313 314 316 318 320 322 324 324 nan nan nan nan nan nan nan nan nan nan nan nan nan 325 324 324 324 320 317 313 309 310 310 308 304 301 298 298 295 292 291 289 287 286 284 281 nan nan nan nan nan nan nan nan nan nan nan nan 231 231 234 243 245 244 238 237 237 235 238 244 246 245 246 252 253 255 254 252 254 256 252 249
312 313 314 314 312 314 315 316 319 321 323 324 324 324 321 319 319 320 nan nan nan nan nan nan nan nan 322 321 321 322 320 317 312 311 312 313 308 305 301 299 301 298 297 296 294 291 290 288 284 282 277 nan nan nan nan nan nan nan nan nan nan 230 nan 229 238 249 nan 237 235 235 240 239 241 245 246 241 250 250 250 251 250 250 250 245 247
310 312 314 313 314 315 315 316 319 322 324 325 324 322 320 320 321 323 nan nan nan nan nan nan nan 323 324 324 323 323 322 319 313 310 312 311 307 306 306 304 304 304 301 298 297 296 295 292 290 285 277 nan nan nan nan nan nan nan nan nan nan nan nan nan 229 239 242 235 229 232 234 238 242 242 243 246 252 255 251 251 251 252 248 245 242
309 312 314 315 315 316 316 318 320 322 323 323 321 321 321 321 321 322 nan nan nan nan 323 323 326 327 326 324 323 322 320 314 305 313 313 317 313 309 310 310 309 308 306 303 305 304 300 296 293 287 nan nan nan nan nan nan nan nan nan nan nan nan nan nan nan nan 238 234 231 234 234 234 240 244 241 243 247 250 249 248 249 251 249 243 243
311 313 315 316 316 315 316 319 322 323 322 321 321 322 322 323 323 323 nan nan 325 325 325 325 325 325 325 324 323 320 317 317 322 329 330 327 321 319 318 317 315 311 309 310 309 309 307 303 300 293 278 270 267 nan nan nan nan nan nan nan nan nan nan nan nan nan nan 229 227 231 235 232 237 243 242 239 244 246 248 249 245 250 251 246 242
313 315 316 316 315 316 318 321 322 322 321 321 321 322 322 323 323 324 nan nan 325 323 323 323 325 326 325 324 321 319 319 317 326 328 331 328 326 324 322 320 318 314 311 314 316 314 309 306 305 299 287 274 268 260 257 nan nan nan nan nan nan nan nan nan nan nan nan nan 225 226 232 236 239 242 242 239 238 241 241 240 243 248 250 248 242
313 315 315 315 316 317 319 321 323 322 321 322 322 322 322 322 323 324 nan nan 322 322 324 326 326 325 325 323 321 320 322 322 327 329 331 331 331 331 326 327 324 317 313 316 318 315 311 311 312 307 296 283 277 262 254 nan nan nan nan nan nan nan nan nan nan nan nan 230 227 225 229 236 240 246 245 239 239 240 242 244 246 247 247 246 244
313 314 315 316 318 320 321 322 323 322 322 322 322 321 321 322 323 323 nan nan 323 322 323 325 325 326 326 324 322 322 322 322 329 329 332 334 337 333 333 332 326 314 308 314 317 317 316 316 317 313 303 294 284 261 245 239 nan nan nan nan nan nan nan nan nan nan nan nan nan nan 227 232 233 236 242 242 241 240 241 240 242 245 248 246 245
312 313 316 319 320 321 321 322 322 321 321 321 321 322 321 322 323 322 nan 321 321 321 321 324 327 327 325 321 319 317 317 317 327 330 333 338 339 336 335 333 327 323 325 326 325 327 320 320 322 322 313 306 301 270 251 236 nan nan nan nan nan nan nan nan nan nan nan nan nan nan nan 230 231 232 236 237 240 239 241 238 239 241 239 243 243
313 315 319 321 321 320 320 320 320 320 321 320 321 322 321 322 322 321 321 322 321 322 325 326 nan 328 324 322 321 319 317 319 327 329 333 337 333 335 338 335 332 326 327 329 331 323 323 325 325 326 323 313 307 276 248 238 nan nan nan nan nan nan nan nan nan nan nan nan nan nan nan nan nan 246 237 235 240 238 237 234 233 237 235 234 240
314 318 320 321 321 319 319 318 318 320 320 320 321 322 322 321 321 320 321 321 323 323 325 327 326 327 325 321 320 319 322 320 326 328 330 329 328 335 335 327 322 323 323 319 320 327 328 329 330 331 327 323 319 294 250 236 nan nan nan nan nan nan nan nan nan nan nan nan nan nan nan nan nan nan nan 222 235 237 235 231 233 240 238 237 241
316 318 320 319 319 317 317 317 318 319 319 320 322 322 322 321 320 319 321 321 323 323 324 327 328 323 321 324 310 307 307 301 319 324 325 327 331 330 326 322 325 328 332 324 325 329 332 335 337 337 334 329 328 306 262 238 nan nan nan nan nan nan nan nan nan nan nan nan nan nan nan nan nan nan nan nan 241 243 244 241 232 232 234 237 237
316 317 317 317 317 316 316 316 318 319 320 321 321 321 321 320 319 319 320 323 323 324 326 325 323 319 310 309 314 315 310 301 317 315 315 317 325 324 323 323 326 329 326 328 330 332 335 334 341 344 342 336 338 315 274 nan nan nan nan nan nan nan nan nan nan nan nan nan nan nan nan nan nan nan nan nan nan nan 246 243 238 236 234 233 235
315 313 313 315 316 315 315 316 317 318 320 321 320 320 319 320 322 322 323 321 320 319 318 321 321 317 311 317 319 318 310 304 316 316 313 317 nan 317 318 322 324 326 327 330 336 339 339 339 340 346 346 339 330 322 nan nan 254 241 nan nan nan nan nan nan nan nan nan nan nan nan nan 231 nan nan nan nan nan nan nan 243 240 239 238 234 235
312 311 313 315 317 316 315 316 317 319 321 320 320 320 320 321 321 320 321 321 320 319 320 323 321 318 312 314 316 311 307 318 313 310 303 304 nan nan 318 319 321 322 326 332 339 342 342 342 339 335 324 323 324 nan nan nan nan nan nan 223 208 nan nan nan nan nan nan nan nan nan 225 228 235 240 240 239 nan nan nan nan nan nan nan 239 238
310 312 315 316 317 316 316 315 316 318 320 320 319 319 319 320 318 319 320 319 320 320 321 323 322 315 313 313 306 313 326 312 301 302 302 303 308 nan nan 317 310 nan nan 336 340 343 346 345 345 333 327 334 nan nan nan nan 237 249 232 nan 195 193 nan nan nan nan nan nan nan nan 220 231 232 234 234 237 243 246 246 246 nan nan 242 238 239
311 313 315 316 315 315 315 316 316 316 318 318 319 319 318 319 321 319 319 319 319 323 325 325 323 318 312 311 312 311 291 293 287 299 304 304 313 318 nan nan nan nan 329 336 339 343 345 347 347 336 nan nan nan nan nan 4 289 250 195 196 201 197 nan nan nan nan nan nan nan nan nan 214 224 233 236 239 239 244 246 248 247 247 242 240 239
313 314 314 315 315 315 315 315 317 316 316 316 317 318 317 316 316 317 318 320 320 321 324 323 320 315 309 303 308 298 301 301 298 295 304 310 nan nan nan nan nan nan nan nan 339 342 342 344 347 nan nan nan 4 3 8 7 343 106 167 182 194 204 211 208 nan nan nan nan nan nan nan nan nan 221 232 235 237 241 244 244 244 244 243 242 242
312 312 313 314 315 314 314 314 315 316 315 314 316 316 317 318 317 314 310 310 318 319 321 322 318 305 305 309 302 299 293 301 303 300 308 nan nan nan nan nan nan nan nan 338 340 340 342 nan nan nan 7 8 11 10 4 353 355 40 120 158 187 214 212 210 208 nan nan nan nan nan nan nan nan nan 218 239 236 235 235 236 238 237 239 239 237
311 311 310 311 314 315 315 315 315 315 314 311 312 313 315 315 314 311 309 312 315 316 317 313 312 306 305 303 297 284 286 285 291 296 298 285 nan nan nan nan nan nan nan 348 nan nan nan nan nan nan 6 2 359 355 335 340 345 2 48 145 203 210 214 212 211 nan nan nan nan nan nan nan nan nan nan 232 236 236 235 235 238 238 239 238 238
310 310 310 312 312 312 314 311 312 312 311 310 312 313 311 310 308 306 306 307 308 310 314 313 309 308 301 297 290 286 285 284 283 282 nan nan nan nan nan nan nan nan 325 321 320 324 334 nan nan nan 4 5 6 349 333 329 325 340 330 306 202 206 208 214 213 nan nan nan nan nan nan nan nan nan nan 225 237 235 238 237 236 232 234 238 238
309 309 309 307 307 309 310 316 314 309 309 310 310 305 299 298 299 300 305 309 310 308 308 307 299 291 294 297 290 285 283 284 280 nan nan nan nan nan nan nan nan nan nan nan nan nan nan 343 351 344 336 341 343 347 335 332 333 320 318 320 225 195 197 203 209 211 211 213 nan nan nan nan nan nan nan nan 225 230 230 231 233 238 239 242 241
307 305 304 305 308 310 311 308 304 304 304 304 292 289 293 295 297 298 292 290 290 296 301 304 301 291 289 289 290 287 287 284 nan nan nan nan nan nan nan nan nan nan nan nan nan nan 338 335 325 317 318 nan 322 325 329 326 318 323 320 316 290 207 197 206 212 213 210 209 nan nan nan nan nan nan nan nan 216 218 230 235 236 234 239 239 238
305 306 308 309 309 310 308 308 306 302 301 301 295 291 nan 282 279 293 294 286 283 nan nan 291 285 281 282 282 278 282 nan nan nan nan nan nan nan nan nan nan nan nan nan nan nan nan 337 319 nan nan nan nan nan nan nan nan nan nan 336 nan 321 nan nan nan nan 216 216 212 nan nan nan nan nan nan nan nan 215 219 219 220 223 226 230 232 233
301 301 301 303 293 290 296 299 295 298 302 297 301 299 nan nan nan 270 276 nan nan nan nan nan nan nan nan 283 nan nan nan nan nan nan nan nan nan nan nan nan nan nan nan nan nan 328 nan nan nan nan nan nan nan nan nan nan nan nan nan nan nan nan nan nan nan nan nan nan nan nan nan nan nan nan nan nan 214 215 217 220 222 220 218 217 220
299 299 298 294 292 299 301 300 294 291 292 295 297 300 298 293 nan nan nan nan nan nan nan nan nan nan nan nan nan nan nan nan nan nan nan nan nan nan nan nan nan nan nan nan nan 307 nan nan nan nan nan nan nan nan nan nan nan nan nan nan nan nan nan nan nan nan nan nan nan nan nan nan nan nan nan nan nan nan nan nan nan nan nan nan nan
296 293 291 293 296 293 292 290 290 289 291 290 292 292 293 298 295 292 nan nan nan nan nan nan nan nan nan nan nan nan nan nan nan nan nan nan nan nan nan nan nan nan nan nan nan nan nan nan nan nan nan nan nan nan nan nan nan nan nan nan nan nan nan 332 148 204 nan nan nan nan nan nan nan nan nan nan nan nan nan nan nan nan nan nan nan
296 293 291 288 287 286 289 291 289 288 289 291 286 293 300 300 298 293 293 nan nan nan nan nan nan nan nan nan nan nan nan nan nan nan nan nan nan nan nan nan nan nan nan nan nan nan nan nan nan nan nan nan nan nan nan nan nan nan nan nan nan nan nan nan 328 252 nan nan nan nan nan nan nan nan 197 nan nan nan nan nan nan nan nan nan nan
299 297 294 289 286 286 287 285 287 289 286 283 287 290 279 279 282 287 292 nan nan nan nan nan nan nan nan nan nan nan nan nan nan nan nan nan nan nan nan nan nan nan nan nan nan nan nan nan nan nan nan nan nan nan nan nan nan nan nan nan nan nan nan nan nan nan nan nan nan nan nan nan nan nan nan nan 200 nan nan nan nan nan nan nan nan
297 294 290 292 291 287 285 285 281 277 277 279 281 279 282 283 288 293 295 294 296 298 nan nan nan nan nan nan nan nan nan nan nan nan nan nan nan nan nan nan nan nan nan nan nan nan nan nan nan nan nan nan nan nan nan nan nan nan nan nan nan nan nan nan nan nan nan nan nan nan nan nan nan nan nan nan nan 201 203 207 209 nan nan nan nan
293 289 289 282 275 275 275 276 277 273 272 278 279 279 282 283 285 288 292 292 290 292 294 nan nan nan nan nan nan nan nan nan nan nan nan nan nan nan nan nan nan nan nan nan nan nan nan nan nan nan nan nan nan nan nan nan nan nan nan nan nan nan nan nan nan nan nan nan nan nan nan nan nan nan nan nan nan nan 199 200 202 207 209 nan nan
292 287 281 274 275 274 274 275 277 278 283 282 283 282 278 279 281 284 284 287 nan 289 nan nan nan nan nan nan nan nan nan nan nan nan nan nan nan nan nan nan nan nan nan nan nan nan nan nan nan nan nan nan nan nan nan nan nan nan nan nan nan nan nan nan nan nan nan nan nan nan nan nan nan nan nan nan nan nan nan nan 199 204 206 208 210
293 284 279 275 278 276 274 276 285 289 288 287 279 278 281 281 nan nan nan nan nan nan nan nan nan nan nan nan nan nan nan nan nan nan nan nan nan nan nan nan nan nan nan nan nan nan nan nan nan nan nan nan nan nan nan nan nan nan nan nan nan nan nan nan nan nan nan nan nan nan nan nan nan nan nan nan nan nan nan nan nan 202 204 204 204
292 289 282 279 284 282 279 277 281 281 281 284 282 281 279 nan nan nan nan nan nan nan nan nan nan nan nan nan nan nan nan nan nan nan nan nan nan nan nan nan nan nan nan nan nan nan nan nan nan nan nan nan nan nan nan nan nan nan nan nan nan nan nan nan nan nan nan nan nan nan nan nan nan nan nan nan nan nan nan nan nan nan nan 207 206
288 285 286 279 271 280 281 277 273 271 273 273 280 282 nan nan nan nan nan nan nan nan nan nan nan nan nan nan nan nan nan nan nan nan nan nan nan nan nan nan nan nan nan nan nan nan nan nan nan nan nan nan nan nan nan nan nan nan nan nan nan nan nan nan nan nan nan nan nan nan nan nan nan nan nan nan nan nan nan nan nan nan nan nan nan
289 288 283 283 283 279 279 279 278 277 279 nan nan nan nan nan nan nan nan nan nan nan nan nan nan nan nan nan nan nan nan nan nan nan nan nan nan nan nan nan nan nan nan nan nan nan nan nan nan nan nan nan nan nan nan nan nan nan nan nan nan nan nan nan nan nan nan nan nan nan nan nan nan nan nan nan nan nan nan nan nan nan nan nan nan
282 283 283 282 282 282 281 280 281 nan nan nan nan nan nan nan nan nan nan nan nan nan nan nan nan nan nan nan nan nan nan nan nan nan nan nan nan nan nan nan nan nan nan nan nan nan nan nan nan nan nan nan nan nan nan nan nan nan nan nan nan nan nan nan nan nan nan nan nan nan nan nan nan nan nan nan nan nan nan nan nan nan nan nan nan
282 280 280 282 282 nan nan nan nan nan nan nan nan nan nan nan nan nan nan nan nan nan nan nan nan nan nan nan nan nan nan nan nan nan nan nan nan nan nan nan nan nan nan nan nan nan nan nan nan nan nan nan nan nan nan nan nan nan nan nan nan nan nan nan nan nan nan nan nan nan nan nan nan nan nan nan nan nan nan nan nan nan nan nan nan
282 nan nan nan nan nan nan nan nan nan nan nan nan nan nan nan nan nan nan nan nan nan nan nan nan nan nan nan nan nan nan nan nan nan nan nan nan nan nan nan nan nan nan nan nan nan nan nan nan nan nan nan nan nan nan nan nan nan nan nan nan nan nan nan nan nan nan nan nan nan nan nan nan nan nan nan nan nan nan nan nan nan nan nan nan
nan nan nan nan nan nan nan nan nan nan nan nan nan nan nan nan nan nan nan nan nan nan nan nan nan nan nan nan nan nan nan nan nan nan nan nan nan nan nan nan nan nan nan nan nan nan nan nan nan nan nan nan nan nan nan nan nan nan nan nan nan nan nan nan nan nan nan nan nan nan nan nan nan nan nan nan nan nan nan nan nan nan nan nan nan
nan nan nan nan nan nan nan nan nan nan nan nan nan nan nan nan nan nan nan nan nan nan nan nan nan nan nan nan nan nan nan nan nan nan nan nan nan nan nan nan nan nan nan nan nan nan nan nan nan nan nan nan nan nan nan nan nan nan nan nan nan nan nan nan nan nan nan nan nan nan nan nan nan nan nan nan nan nan nan nan nan nan nan nan nan
nan nan nan nan nan nan nan nan nan nan nan nan nan nan nan nan nan nan nan nan nan nan nan nan nan nan nan nan nan nan nan nan nan nan nan nan nan nan nan nan nan nan nan nan nan nan nan nan nan nan nan nan nan nan nan nan nan nan nan nan nan nan nan nan nan nan nan nan nan nan nan nan nan nan nan nan nan nan nan nan nan nan nan nan nan
nan nan nan nan nan nan nan nan nan nan nan nan nan nan nan nan nan nan nan nan nan nan nan nan nan nan nan nan nan nan nan nan nan nan nan nan nan nan nan nan nan nan nan nan nan nan nan nan nan nan nan nan nan nan nan nan nan nan nan nan nan nan nan nan nan nan nan nan nan nan nan nan nan nan nan nan nan nan nan nan nan nan nan nan nan
nan nan nan nan nan nan nan nan nan nan nan nan nan nan nan nan nan nan nan nan nan nan nan nan nan nan nan nan nan nan nan nan nan nan nan nan nan nan nan nan nan nan nan nan nan nan nan nan nan nan nan nan nan nan nan nan nan nan nan nan nan nan nan nan nan nan nan nan nan nan nan nan nan nan nan nan nan nan nan nan nan nan nan nan nan
nan nan nan nan nan nan nan nan nan nan nan nan nan nan nan nan nan nan nan nan nan nan nan nan nan nan nan nan nan nan nan nan nan nan nan nan nan nan nan nan nan nan nan nan nan nan nan nan nan nan nan nan nan nan nan nan nan nan nan nan nan nan nan nan nan nan nan nan nan nan nan nan nan nan nan nan nan nan nan nan nan nan nan nan nan